Change the Weather History Date:

Wednesday, April 17, 2013

  Actual Average (KRFD) Record (KRFD)
Temperature  
Mean Temperature 44 °F 50 °F  
Max Temperature 52 °F 61 °F 86 °F (1977)
Min Temperature 40 °F 39 °F 24 °F (1983)
Degree Days  
Heating Degree Days 21 15  
Month to date heating degree days 310  
Since 1 July heating degree days 6174  
Cooling Degree Days 0 0  
Month to date cooling degree days 0  
Year to date cooling degree days 0  
Moisture  
Dew Point 39 °F    
Average Humidity 86    
Maximum Humidity 98    
Minimum Humidity 68    
Precipitation  
Precipitation 1.46 in 0.12 in 3.06 in (2013)
Month to date precipitation 1.89  
Year to date precipitation 6.99  
Snow  
Snow 0.00 in 0.10 in 0.50 in (1926)
Month to date snowfall 0.8  
Since 1 July snowfall 36.6  
Snow Depth -    
Sea Level Pressure  
Sea Level Pressure 30.08 in    
Wind  
Wind Speed 12 mph (East)    
Max Wind Speed 24 mph    
Max Gust Speed 38 mph    
Visibility 8 miles    
Events Rain , Thunderstorm    
T = Trace of Precipitation, MM = Missing Value Source: NWS Daily Summary

Daily Weather History Graph

Daily Weather History Graph

Search for Another Location

Airport or City:

Trip Planner

Search our weather history database for the weather conditions in past years. The results will help you decide how hot, cold, wet, or windy it might be!

Date:

Astronomy

Apr. 17, 2013 Rise Set
Actual Time 6:12 AM CDT 7:39 PM CDT
Civil Twilight 5:43 AM CDT 8:09 PM CDT
Nautical Twilight 5:08 AM CDT 8:44 PM CDT
Astronomical Twilight 4:31 AM CDT 9:21 PM CDT
Moon 11:24 AM CDT (4/17) 1:19 AM CDT (4/17)
Length of Visible Light 14h 25m
Length of Day
13h 27m
Waxing Crescent, 42% of the Moon is Illuminated
Apr 17
Waxing Crescent
Apr 18
First Quarter
Apr 25
Full
May 2
Last Quarter
May 9
New

Hourly Weather History & Observations

Time (CDT) Temp. Windchill Dew Point Humidity Pressure Visibility Wind Dir Wind Speed Gust Speed Precip Events Conditions
12:15 AM 43.2 °F 39.7 °F 35.1 °F 73% 30.27 in 10.0 mi East 5.8 mph - N/A   Overcast
12:35 AM 43.2 °F 37.4 °F 34.7 °F 72% 30.27 in 10.0 mi ENE 10.4 mph - N/A   Overcast
12:55 AM 43.0 °F 37.7 °F 34.7 °F 73% 30.28 in 10.0 mi ENE 9.2 mph - N/A   Overcast
1:15 AM 42.8 °F 37.5 °F 35.1 °F 74% 30.27 in 10.0 mi ENE 9.2 mph - N/A   Overcast
1:35 AM 42.6 °F 36.8 °F 34.9 °F 74% 30.27 in 10.0 mi ENE 10.4 mph - N/A   Overcast
1:55 AM 42.8 °F 37.5 °F 34.9 °F 74% 30.28 in 10.0 mi ENE 9.2 mph - N/A   Overcast
2:15 AM 42.4 °F 36.5 °F 34.2 °F 72% 30.27 in 10.0 mi ENE 10.4 mph - N/A   Overcast
2:35 AM 42.3 °F 35.9 °F 34.7 °F 75% 30.26 in 10.0 mi ENE 11.5 mph - N/A   Overcast
2:55 AM 42.3 °F 35.9 °F 34.5 °F 74% 30.26 in 10.0 mi ENE 11.5 mph - N/A   Overcast
3:15 AM 42.1 °F 35.7 °F 34.3 °F 74% 30.25 in 10.0 mi ENE 11.5 mph - N/A   Overcast
3:35 AM 42.1 °F 34.9 °F 34.3 °F 74% 30.24 in 10.0 mi ENE 13.8 mph - N/A   Overcast
3:55 AM 42.1 °F 36.6 °F 33.8 °F 72% 30.25 in 10.0 mi ENE 9.2 mph - N/A   Overcast
4:15 AM 42.4 °F 36.1 °F 32.9 °F 69% 30.24 in 10.0 mi East 11.5 mph 16.1 mph N/A   Overcast
4:35 AM 42.3 °F 35.9 °F 33.1 °F 70% 30.23 in 10.0 mi ENE 11.5 mph - N/A   Overcast
4:55 AM 42.3 °F 36.3 °F 32.5 °F 68% 30.22 in 10.0 mi East 10.4 mph - N/A   Mostly Cloudy
5:15 AM 42.3 °F 35.5 °F 32.9 °F 69% 30.21 in 10.0 mi ENE 12.7 mph - N/A   Overcast
5:35 AM 42.3 °F 35.9 °F 33.1 °F 70% 30.21 in 10.0 mi East 11.5 mph - N/A   Overcast
5:55 AM 42.3 °F 35.1 °F 32.7 °F 69% 30.21 in 10.0 mi East 13.8 mph - N/A   Overcast
6:15 AM 42.3 °F 35.1 °F 32.5 °F 68% 30.21 in 10.0 mi East 13.8 mph - N/A Thunderstorm Overcast
6:35 AM 42.1 °F 35.7 °F 32.7 °F 69% 30.21 in 10.0 mi East 11.5 mph - N/A Thunderstorm Overcast
6:55 AM 42.3 °F 35.9 °F 33.3 °F 70% 30.24 in 10.0 mi ENE 11.5 mph - N/A Thunderstorm Thunderstorm
7:15 AM 41.9 °F 37.5 °F 35.1 °F 77% 30.29 in 10.0 mi North 6.9 mph - 0.01 in Rain , Thunderstorm Light Thunderstorms and Rain
7:35 AM 40.6 °F 32.3 °F 35.6 °F 82% 30.20 in 10.0 mi ENE 16.1 mph - 0.03 in Rain Light Rain
7:55 AM 41.0 °F 34.7 °F 35.4 °F 81% 30.25 in 10.0 mi NNE 10.4 mph 13.8 mph 0.03 in Rain , Thunderstorm Light Thunderstorms and Rain
8:15 AM 40.6 °F 32.3 °F 35.8 °F 83% 30.19 in 10.0 mi ENE 16.1 mph 21.9 mph 0.02 in Rain , Thunderstorm Light Thunderstorms and Rain
8:35 AM 40.8 °F 32.3 °F 35.8 °F 82% 30.17 in 10.0 mi East 17.3 mph 21.9 mph 0.02 in Rain , Thunderstorm Light Thunderstorms and Rain
8:55 AM 41.2 °F 33.4 °F 36.5 °F 83% 30.16 in 10.0 mi East 15.0 mph 20.7 mph 0.02 in Rain , Thunderstorm Light Thunderstorms and Rain
9:15 AM 41.9 °F 34.0 °F 36.9 °F 82% 30.14 in 10.0 mi ENE 16.1 mph 25.3 mph N/A Thunderstorm Scattered Clouds
9:35 AM 42.6 °F 35.2 °F 37.2 °F 81% 30.17 in 10.0 mi East 15.0 mph - N/A Thunderstorm Thunderstorm
9:55 AM 42.8 °F 35.8 °F 39.2 °F 87% 30.17 in 10.0 mi ENE 13.8 mph 18.4 mph N/A Thunderstorm Unknown
10:15 AM 42.6 °F 34.0 °F 37.9 °F 83% 30.10 in 10.0 mi ENE 19.6 mph - N/A Rain , Thunderstorm Light Thunderstorms and Rain
10:35 AM 42.4 °F 34.1 °F 38.3 °F 85% 30.26 in 10.0 mi West 18.4 mph 21.9 mph 0.01 in Rain , Thunderstorm Light Thunderstorms and Rain
10:55 AM 41.2 °F 32.7 °F 38.8 °F 91% 30.11 in 2.0 mi ENE 17.3 mph 24.2 mph 0.23 in Rain , Thunderstorm Light Thunderstorms and Rain
11:15 AM 41.2 °F 32.4 °F 39.2 °F 93% 30.11 in 2.5 mi ENE 18.4 mph 23.0 mph 0.12 in Rain , Thunderstorm Rain
11:35 AM 41.7 °F 33.1 °F 39.7 °F 93% 30.09 in 10.0 mi East 18.4 mph 24.2 mph 0.12 in Rain , Thunderstorm Light Thunderstorms and Rain
11:55 AM 42.3 °F 34.8 °F 40.1 °F 92% 30.11 in 7.0 mi NNE 15.0 mph 20.7 mph 0.16 in Rain , Thunderstorm Thunderstorms and Rain
12:15 PM 41.9 °F 32.8 °F 40.1 °F 93% 30.07 in 4.0 mi NE 20.7 mph - 0.03 in Rain , Thunderstorm Light Thunderstorms and Rain
12:35 PM 41.4 °F 31.4 °F 40.1 °F 95% 30.05 in 2.0 mi NE 24.2 mph - 0.05 in Rain , Thunderstorm Light Thunderstorms and Rain
12:55 PM 41.4 °F 33.3 °F 40.3 °F 96% 30.05 in 2.0 mi ENE 16.1 mph 24.2 mph 0.05 in Rain , Thunderstorm Light Thunderstorms and Rain
1:15 PM 41.4 °F 33.0 °F 40.3 °F 96% 30.03 in 2.0 mi ENE 17.3 mph 27.6 mph N/A Rain , Thunderstorm Light Thunderstorms and Rain
1:35 PM 42.6 °F 34.9 °F 40.8 °F 93% 30.06 in 1.5 mi ENE 16.1 mph 38.0 mph 0.04 in Rain , Thunderstorm Heavy Thunderstorms and Rain
1:55 PM 42.6 °F 33.8 °F 40.8 °F 93% 30.19 in 5.0 mi NW 20.7 mph 27.6 mph 0.08 in Rain , Thunderstorm Light Thunderstorms and Rain
2:15 PM 43.2 °F 36.6 °F 41.5 °F 94% 30.13 in 2.5 mi NNE 12.7 mph - 0.11 in Rain , Thunderstorm Heavy Thunderstorms and Rain
2:35 PM 43.2 °F 35.9 °F 41.5 °F 94% 30.06 in 3.0 mi East 15.0 mph - 0.22 in Rain , Thunderstorm Light Thunderstorms and Rain
2:55 PM 44.1 °F 36.2 °F 41.9 °F 92% 30.04 in 5.0 mi East 18.4 mph - 0.27 in Rain , Thunderstorm Light Thunderstorms and Rain
3:35 PM 44.4 °F 37.5 °F 41.7 °F 90% 30.03 in 7.0 mi East 15.0 mph 19.6 mph 0.05 in Rain , Thunderstorm Light Thunderstorms and Rain
3:55 PM 43.9 °F 36.8 °F 41.9 °F 93% 30.01 in 10.0 mi East 15.0 mph 23.0 mph 0.09 in Rain , Thunderstorm Light Thunderstorms and Rain
4:15 PM 44.1 °F 37.4 °F 41.9 °F 92% 30.04 in 10.0 mi East 13.8 mph - N/A   Light Drizzle
4:35 PM 43.9 °F 37.5 °F 41.7 °F 92% 30.02 in 10.0 mi ESE 12.7 mph - 0.01 in Rain Light Rain
4:55 PM 43.7 °F 36.0 °F 41.9 °F 93% 29.99 in 10.0 mi East 17.3 mph 21.9 mph 0.02 in Rain , Thunderstorm Light Thunderstorms and Rain
5:15 PM 43.7 °F 35.4 °F 41.9 °F 93% 29.97 in 7.0 mi ESE 19.6 mph 24.2 mph 0.02 in Rain , Thunderstorm Light Thunderstorms and Rain
5:35 PM 43.9 °F 36.2 °F 42.4 °F 95% 29.96 in 10.0 mi East 17.3 mph - 0.04 in Rain , Thunderstorm Light Thunderstorms and Rain
5:55 PM 43.9 °F 35.7 °F 42.8 °F 96% 29.93 in 10.0 mi East 19.6 mph 24.2 mph 0.07 in Rain , Thunderstorm Light Thunderstorms and Rain
6:15 PM 44.2 °F 36.7 °F 43.0 °F 95% 29.92 in 10.0 mi East 17.3 mph 20.7 mph 0.01 in Rain Light Rain
6:35 PM 44.6 °F 37.4 °F 43.3 °F 95% 29.90 in 10.0 mi East 16.1 mph - 0.01 in Rain , Thunderstorm Light Thunderstorms and Rain
6:55 PM 44.6 °F 37.2 °F 43.3 °F 95% 29.91 in 10.0 mi ESE 17.3 mph 24.2 mph 0.01 in   Mostly Cloudy
7:15 PM 45.0 °F 39.7 °F 43.7 °F 95% 29.91 in 10.0 mi ESE 10.4 mph - N/A Rain Light Rain
7:35 PM 45.1 °F 40.3 °F 43.9 °F 95% 29.92 in 10.0 mi SSE 9.2 mph - N/A Rain Light Rain
7:55 PM 45.1 °F 39.9 °F 43.9 °F 95% 29.88 in 10.0 mi East 10.4 mph 17.3 mph 0.01 in Rain Light Rain
8:15 PM 45.5 °F 39.9 °F 44.4 °F 96% 29.86 in 7.0 mi ENE 11.5 mph - N/A Rain Light Rain
8:35 PM 45.5 °F 42.5 °F 44.6 °F 97% 29.89 in 5.0 mi NE 5.8 mph - N/A Thunderstorm Overcast
8:55 PM 45.5 °F 41.8 °F 44.6 °F 97% 29.91 in 5.0 mi ENE 6.9 mph - N/A Rain Light Rain
9:15 PM 45.5 °F 39.6 °F 44.6 °F 97% 29.88 in 4.0 mi ESE 12.7 mph - 0.01 in Rain Rain
9:35 PM 45.5 °F 38.1 °F 44.6 °F 97% 29.84 in 2.5 mi ESE 18.4 mph - 0.06 in Rain , Thunderstorm Thunderstorms and Rain
9:55 PM 46.4 °F 43.5 °F 45.5 °F 97% 29.87 in 4.0 mi ESE 5.8 mph - 0.12 in Rain Rain
10:15 PM 46.4 °F 40.7 °F 45.5 °F 97% 29.83 in 4.0 mi East 12.7 mph - 0.03 in Rain Light Rain
10:35 PM 46.4 °F 41.1 °F 45.7 °F 97% 29.82 in 3.0 mi East 11.5 mph - 0.05 in Rain Light Rain
10:55 PM 47.7 °F - 47.1 °F 98% 29.79 in 4.0 mi East 10.4 mph - 0.08 in Rain , Thunderstorm Thunderstorms and Rain
11:15 PM 47.5 °F - 46.8 °F 97% 29.82 in 3.0 mi SE 11.5 mph - 0.06 in Rain , Thunderstorm Thunderstorms and Rain
11:35 PM 48.0 °F - 47.3 °F 97% 29.79 in 3.0 mi ESE 12.7 mph - 0.14 in Rain , Thunderstorm Thunderstorms and Rain
11:55 PM 48.2 °F - 47.5 °F 97% 29.75 in 3.0 mi ESE 20.7 mph 26.5 mph 0.22 in Rain , Thunderstorm Rain